Other Public Products
Issued by NWS Grand Forks, ND

Home | Current Version | Previous Version | Graphics & Text | Print | Product List | Glossary On
Versions: 1 2 3 4 5 6 7 8 9 10 11 12 13 14 15 16 17 18 19 20 21 22 23 24 25 26 27 28 29 30 31 32 33 34 35 36 37 38 39 40 41 42 43 44 45 46 47 48 49 50
000
FPUS83 KFGF 021010
OPUFGF
PRAIRIE TO PINES WEATHER ROUNDUP
NATIONAL WEATHER SERVICE EASTERN NORTH DAKOTA/GRAND FORKS ND
500 AM CDT WED SEP 02 2015

 **SATELLITE DATA USED TO AUGMENT SKY COVER AT AUTOMATED STATIONS**
 *****  WEATHER ACROSS EASTERN NORTH DAKOTA  *****

CITY           SKY/WX    TMP DP  RH WIND       PRES   REMARKS
GRAND FORKS    CLEAR     63  61  93 SE3       29.82R
GRAND FORKS AF PTCLDY    61  61 100 S1        29.82R
GRAND CITY NWS   N/A     64 N/A N/A S7          N/A
BUXTON         NOT AVBL
DEVILS LAKE    CLEAR     68  61  77 SE6       29.80S
FARGO          CLEAR     70  67  90 SE9       29.84R
WAHPETON ARPT  SUNNY     64  61  88 S6        29.86R
$$

 *****  WEATHER ACROSS CENTRAL AND WESTERN NORTH DAKOTA  *****

CITY           SKY/WX    TMP DP  RH WIND       PRES   REMARKS
JAMESTOWN      MOCLDY    65  62  90 S8        29.81F
BISMARCK       CLEAR     63  62  97 E7        29.79S
MINOT          CLEAR     62  59  90 E5        29.77R
MINOT AFB      NOT AVBL
GARRISON         N/A     58  57  97 CALM      29.79R
WILLISTON      CLEAR     57  45  64 N5        29.77S
DICKINSON      CLEAR     57  53  86 S7        29.80S
HETTINGER      PTCLDY    51  47  86 CALM      29.83F
$$

 *****  OTHER OBSERVATIONS NORTHEAST NORTH DAKOTA  *****

CITY           SKY/WX    TMP DP  RH WIND       PRES   REMARKS
WALHALLA       NOT AVBL
LANGDON        FAIR      66  64  94 SE8       29.83R
CAVALIER       FAIR      63  57  82 S6        29.80S
GRAFTON        FAIR      63  63 100 SE3       29.82S
CANDO          NOT AVBL
FORT TOTTEN    NOT AVBL
ROLLA          FAIR      61  61 100 S6        29.81S
RUGBY          FAIR      68  68 100 S9        29.78F
 ***** THE ABOVE OBSERVATIONS ARE NON NWS ARE NOT QUALITY
        CONTROLLED AND MAY MIS-REPORT RAIN FOR SNOW...
$$

 *****  OTHER OBSERVATIONS SOUTHEAST NORTH DAKOTA *****

CITY           SKY/WX    TMP DP  RH WIND       PRES   REMARKS
COOPERSTOWN    NOT AVBL
VALLEY CITY    FAIR      63  63 100 CALM      29.83S FOG
OAKES          NOT AVBL
GWINNER          N/A     63  63 100 S3        29.83S
SHEYENNE NWR     N/A     65  64  96 CALM      29.95S
BUFFALO        NOT AVBL
WYNDMERE         N/A     64  64 100 SE5         N/A
 ***** THE ABOVE OBSERVATIONS ARE NON NWS ARE NOT QUALITY
       CONTROLLED AND MAY MIS-REPORT RAIN FOR SNOW...
$$

  *****  WEATHER ACROSS NORTHERN MINNESOTA  *****

CITY           SKY/WX    TMP DP  RH WIND       PRES   REMARKS
FLAG ISLAND    CLEAR     68  61  77 SE9       29.87S
WARROAD        CLEAR     61  57  88 SE5       29.87F
ROSEAU         CLEAR     61  55  82 CALM      29.86R
HALLOCK        CLEAR     66  63  88 SE8       29.81S
THF RVR FALLS  CLEAR     63  61  94 E7        29.86S
HALSTAD        NOT AVBL
FOSSTON        CLEAR     64  63  94 S6        29.89R
BAUDETTE       CLEAR     58  54  86 SE6       29.89R
WASKISH        CLEAR     61  57  88 SE5       29.89S
CROOKSTON      CLEAR     66  64  94 S8        29.84S
$$
  *****  WEATHER ACROSS CENTRAL AND WEST MINNESOTA  *****

CITY           SKY/WX    TMP DP  RH WIND       PRES   REMARKS
BEMIDJI        CLEAR     63  62  97 SE3       29.90S
PARK RAPIDS    FOG       67  65  93 SE5       29.90S VSB 1/4
WADENA         FOG       64  64 100 CALM      29.90R VSB 1/4
DETROIT LAKES  PTCLDY    68  68 100 SE6       29.89S FOG
MOORHEAD       CLEAR     68  66  94 S8        29.86R
FERGUS FALLS   CLEAR     66  64  94 SE7       29.86S
ELBOW LAKE     FAIR      65  62  90 SE9       29.87R
MORRIS MN      PTCLDY    64  63  94 SE7       29.86S
STAPLES        MOCLDY    68  66  94 SE3       29.89F FOG
WHEATON        CLEAR     59  57  94 E7        29.87S
$$
  *****  WEATHER ELSEWHERE ACROSS MINNESOTA  *****

CITY           SKY/WX    TMP DP  RH WIND       PRES   REMARKS
DULUTH         CLOUDY    68  66  93 E5        29.94S FOG
INTRNTL FALLS  CLEAR     52  52 100 CALM      29.92R
ELY            PTCLDY    52  50  93 CALM      29.95S
CLOQUET        FOG       70  66  88 E3        29.93S VSB 1/2
BRAINERD       CLOUDY    70  68  93 CALM      29.91S FOG
HIBBING        MOCLDY    64  60  87 CALM      29.94S
ALEXANDRIA     PTCLDY    66  63  90 SE6       29.90F
SAINT CLOUD    CLOUDY    70  68  93 SE6       29.92R
MINNEAPOLIS    LGT RAIN  70  67  90 CALM      29.93F
$$

  *****  WEATHER ACROSS SOUTH DAKOTA  *****

CITY           SKY/WX    TMP DP  RH WIND       PRES   REMARKS
SIOUX FALLS    CLEAR     67  65  93 SE3       29.85R
BROOKINGS      CLEAR     64  61  88 SE8       29.87S
WATERTOWN      CLEAR     65  62  90 SE6       29.85S
HURON          PTCLDY    69  67  93 SE10      29.79S
SISSETON         N/A     63  62  97 SE6       29.83S
ABERDEEN       CLEAR     66  64  93 E5        29.80S
MITCHELL       CLEAR     68  67  96 SE7       29.81S
PIERRE         FOG       60  60 100 CALM      29.77S VSB 1/4
MOBRIDGE       CLEAR     65  65 100 E8        29.77S FOG
RAPID CITY     CLEAR     60  49  66 NW10      29.85R
$$

  *****  SOME WEATHER IN NEARBY STATES *****

CITY           SKY/WX    TMP DP  RH WIND       PRES   REMARKS
GLASGOW MT     CLEAR     59  41  51 E14       29.71F
GREAT FALLS MT FAIR      52  33  48 SW12      29.74R
CHEYENNE WY    MOCLDY    64  40  41 W10       30.11S
SCOTTSBLUFF NE MOCLDY    58  50  75 CALM      29.97R
OMAHA NE       PTCLDY    74  69  85 SE14      29.90S
DES MOINES IA  TSTM      72  68  87 NW9       29.98S
DAVENPORT IA   CLEAR     71  67  87 S7        30.02S
CHICAGO IL     PTCLDY    73  68  84 SW7       30.02S
EAU CLAIRE WI  CLOUDY    74  71  91 S5        29.94R
LA CROSSE WI   MOCLDY    75  70  84 S8        29.95S
$$

  *****  SOME NATIONAL WEATHER *****

CITY           SKY/WX    TMP DP  RH WIND       PRES   REMARKS
LA GUARDIA NY  PTCLDY    75  66  73 CALM      30.01S
RALEIGH NC     PTCLDY    69  67  93 CALM      30.07S
ATLANTA GA     PTCLDY    74  68  81 CALM      30.11S
NEW ORLEANS LA CLOUDY    80  71  74 CALM      30.03S
OKLAHOMA CITY  PTCLDY    66  64  93 S7        30.03S
ALBUQUERQUE NM PTCLDY    68  44  42 SE7       30.19S
SALT LAKE CITY MOCLDY    77  41  27 S20G28    29.95R
LOS ANGELES CA CLOUDY    70  62  76 CALM      29.95F
BOISE ID       FAIR      66  37  34 SE12      29.77R
SEATTLE WA     MOCLDY    56  53  90 S14       29.81S
$$

*** WEATHER ACROSS MANITOBA...SASKATCHEWAN AND ONTARIO ***
                ***ONTARIO***

CITY           SKY/WX    TMP DP  RH WIND       PRES   REMARKS
GERALDTON      PTCLDY    57  54  88 W6        29.95R
THUNDER BAY    PTCLDY    52  52 100 W3        29.96R
SIOUX LOOKOUT  CLEAR     52  52 100 SE3       29.94R
TORONTO        PTCLDY    70  64  83 SW3       30.03R
BIG TROUT LK   CLEAR     52  50  93 E8        29.87F
PICKLE LAKE    NOT AVBL
DRYDEN         CLEAR     63  54  72 VRB2      29.94R
KENORA         CLEAR     63  54  72 SE7       29.90S
$$
                *** MANITOBA***

CITY           SKY/WX    TMP DP  RH WIND       PRES   REMARKS
BRANDON        CLEAR     57  55  94 N5        29.79R
DAUPHIN        CLEAR     59  55  88 W7        29.76R
ISLAND LAKE    PTCLDY    57  55  94 S5        29.80R
PILOT MOUND      N/A     63  59  88 S8          N/A
THE PAS        CLEAR     63  52  67 N10       29.75R
THOMPSON       MOCLDY    54  52  94 E3        29.73F
WINNIPEG       CLEAR     66  57  72 S12       29.80S
LYNN LAKE      CLEAR     50  46  87 NW8G17    29.74R
CHURCHILL      CLOUDY    46  46 100 SE9       29.87F
$$
                ***SASKATCHEWAN***

CITY           SKY/WX    TMP DP  RH WIND       PRES   REMARKS
ESTEVAN        PTCLDY    52  46  82 SE7       29.78S
KINDERSLEY     MOCLDY    55  39  54 SE8       29.66R
LLOYDMINSTER   MOCLDY    50  43  76 E13       29.66F
PRINCE ALBERT  PTCLDY    46  45  93 E5        29.75R
REGINA           N/A     52  45  76 E7        29.77R
YORKTON        CLEAR     50  46  87 CALM      29.79R


USA.gov is the U.S. government's official web portal to all federal, state and local government web resources and services.